Theta_e
313 314 316 318 308 306 310 311 311 312 314 323 328 326 328 330 332 329 335 339 340 342 341 337 332 326 329 327 327 328 327 326 328 333 331 329 327 322 319 325 330 330 329 323 314 312 312 310 310
314 318 320 316 307 307 308 309 311 311 315 325 330 329 332 332 332 334 335 338 340 341 340 335 331 328 328 327 327 329 327 325 328 326 324 325 324 319 318 326 327 324 319 316 322 316 317 315 314
315 319 318 307 305 309 310 310 310 315 320 326 325 330 331 331 333 334 335 339 340 340 339 334 326 328 330 329 328 326 327 326 324 319 317 317 317 316 323 322 318 314 313 326 322 320 320 319 317
316 316 312 310 312 310 311 311 311 312 319 325 326 326 327 331 331 332 331 332 338 341 338 336 333 329 329 329 330 329 329 327 320 316 312 312 313 319 318 314 313 312 313 316 319 320 320 317 309
318 316 308 310 311 310 309 311 320 321 323 323 327 324 326 326 327 325 331 330 328 337 339 337 333 332 328 329 330 329 329 329 326 317 318 311 318 316 322 323 316 313 315 318 319 320 319 316 310
316 312 310 311 311 311 310 313 325 325 324 325 324 324 324 323 323 323 327 330 332 331 337 337 335 334 333 330 330 327 329 330 330 323 314 313 317 315 322 324 315 313 316 317 319 320 319 317 310
312 308 310 311 311 312 312 323 323 324 322 322 323 324 322 322 323 325 328 329 329 330 333 335 333 331 332 328 328 325 330 330 329 317 318 319 315 314 317 314 316 316 317 318 320 320 319 317 315
316 307 311 309 311 312 313 324 324 322 321 324 324 322 324 324 326 327 332 330 331 330 332 335 332 331 329 329 328 325 325 330 329 318 322 318 315 312 312 314 317 317 317 318 319 319 318 318 315
314 309 310 312 311 312 316 320 323 324 323 324 326 327 328 329 328 330 330 331 333 333 333 333 331 329 328 326 324 324 324 328 325 324 321 315 313 313 313 314 317 317 317 318 318 318 318 316 314
310 308 310 310 310 312 313 318 320 324 323 323 323 325 324 328 328 328 329 329 331 329 330 331 330 329 329 327 324 326 328 326 322 322 319 315 313 313 311 313 317 317 317 316 316 316 315 314 312
309 310 310 312 314 313 312 320 323 323 321 321 322 322 324 329 328 328 327 328 329 330 330 328 328 328 329 326 323 327 327 325 326 319 317 313 313 311 308 307 310 316 316 316 315 315 314 313 311
312 311 312 314 315 315 317 320 323 323 322 322 322 322 324 329 330 329 329 328 327 328 327 326 326 327 326 323 323 323 325 326 323 319 317 314 312 309 308 306 306 310 314 314 313 312 312 311 310
311 312 314 316 316 315 316 320 322 322 323 322 322 324 326 329 329 327 327 326 327 326 327 325 325 324 324 323 323 323 325 323 321 320 316 314 311 309 308 308 308 308 310 310 311 310 310 309 309
312 313 314 315 315 315 321 320 322 322 322 322 324 326 328 329 330 327 325 324 327 324 325 324 325 324 324 323 323 322 323 323 321 320 315 315 315 314 310 309 309 310 310 310 311 311 310 309 309
314 314 311 312 313 314 321 319 321 321 321 323 326 328 328 328 328 326 326 322 323 322 322 323 324 325 324 323 321 320 321 321 321 319 315 315 316 317 317 317 315 317 317 317 318 318 314 310 310
314 313 312 312 315 316 319 316 315 318 321 324 324 328 328 328 328 327 325 320 320 321 322 323 324 324 323 323 319 321 321 323 321 321 315 314 316 315 317 316 317 318 318 318 318 319 318 315 314
311 311 312 312 313 316 317 317 315 321 322 322 324 328 329 328 328 326 323 319 319 321 322 323 324 323 324 322 320 318 320 320 320 318 316 315 315 316 317 317 317 317 317 318 318 319 319 318 318
312 314 312 313 314 314 315 317 317 319 321 324 326 327 327 328 327 325 323 319 319 320 321 322 323 322 323 322 320 319 318 318 321 318 316 315 315 315 316 315 316 316 317 318 319 318 318 319 318
311 313 314 312 312 315 313 314 315 316 320 320 322 325 326 327 326 324 323 319 319 320 320 321 322 322 322 321 318 319 320 321 319 320 316 315 315 315 314 314 314 317 317 318 319 319 320 319 319
313 314 313 312 313 313 313 315 316 317 318 320 320 321 323 326 325 325 324 320 320 319 319 320 321 322 322 321 320 322 322 321 321 320 317 315 315 315 315 315 315 317 318 318 319 319 319 320 320
313 313 313 314 312 314 315 316 315 316 318 320 321 321 321 323 325 325 325 322 319 318 318 320 321 322 322 321 319 318 319 321 318 317 316 315 316 315 315 316 315 317 318 318 318 318 319 319 320
313 312 313 313 315 316 315 317 314 314 316 320 321 322 322 322 322 324 325 324 319 319 317 318 320 320 322 320 319 318 319 319 318 317 316 316 317 317 316 316 315 314 317 319 319 317 315 317 320
313 313 313 314 315 316 316 314 314 316 318 316 318 321 322 323 323 324 325 325 323 318 318 319 319 321 321 317 318 320 319 316 317 317 315 316 318 318 317 315 314 314 316 320 320 320 319 319 319
315 316 316 316 315 317 316 315 315 314 317 316 319 320 321 322 322 324 325 325 325 319 317 318 320 321 319 317 317 320 318 316 317 316 315 315 314 315 314 314 315 315 315 315 317 318 318 320 320
315 315 317 318 318 320 315 315 317 315 314 315 316 318 321 322 322 323 324 325 325 323 317 317 318 320 319 317 316 315 316 318 318 316 315 315 315 315 314 314 315 315 314 313 314 316 318 320 321
315 315 317 321 320 318 318 320 319 316 316 318 318 319 319 320 322 323 324 325 325 326 320 316 317 318 319 318 317 315 315 315 316 317 316 315 316 316 314 314 315 315 314 312 313 314 317 320 321
315 315 315 316 318 320 318 318 316 316 316 315 315 318 320 319 321 322 324 325 325 325 326 318 315 316 318 318 318 316 315 315 316 316 316 316 316 316 315 314 314 314 313 313 317 319 320 319 318
315 314 318 316 320 322 319 320 318 318 317 315 314 319 322 321 322 322 324 325 326 324 326 326 318 315 316 317 318 317 317 315 315 315 316 314 314 315 314 314 313 315 319 321 321 321 321 318 319
315 316 316 316 316 319 320 318 315 316 317 317 315 315 320 323 323 323 323 325 326 325 325 327 325 319 315 315 316 317 317 317 316 315 315 315 315 315 315 316 320 322 321 322 321 320 321 322 322
314 315 315 317 318 318 317 318 315 315 315 315 317 319 319 320 324 324 324 324 325 325 325 326 327 325 322 317 315 315 315 315 314 314 315 315 316 316 319 320 321 321 320 320 318 319 322 321 322
Wind_Speed
5 4 2 1 4 5 3 5 3 5 3 3 7 3 2 2 1 2 4 9 7 14 23 28 29 30 27 29 28 27 26 22 27 30 27 26 24 23 24 27 27 26 24 23 22 23 24 24 23
6 4 3 3 4 3 5 4 6 6 4 4 2 1 0 3 2 4 4 10 12 17 20 22 25 25 27 29 32 31 27 25 27 26 22 25 24 24 27 29 27 25 24 24 26 25 25 26 26
5 3 1 4 3 3 5 6 7 4 4 4 3 3 3 3 4 7 7 8 15 18 22 21 26 26 27 25 25 27 30 26 25 21 21 23 23 26 30 30 28 26 25 28 25 25 28 24 22
3 2 5 4 3 6 6 7 9 5 3 2 3 4 2 6 3 5 8 7 15 18 22 24 23 27 28 27 24 21 24 27 26 23 21 21 25 29 30 29 28 27 25 26 25 25 25 23 22
2 3 4 2 4 5 6 7 7 2 2 2 4 2 3 6 9 9 12 12 13 19 21 24 22 26 32 26 19 21 23 30 28 24 25 23 30 31 29 29 29 28 27 27 26 26 25 23 23
3 2 4 1 4 5 6 9 2 2 2 3 3 2 4 5 8 11 11 12 13 21 26 26 24 20 19 31 21 9 30 32 34 30 30 33 34 33 31 30 30 28 27 26 25 25 25 23 23
6 3 4 3 4 4 4 1 4 3 2 7 5 3 2 7 5 7 6 8 13 16 26 29 27 20 20 15 12 21 27 38 35 32 35 39 36 35 33 31 29 28 26 25 25 25 23 23 21
4 4 2 4 1 5 4 3 6 5 6 6 5 5 3 7 4 5 4 6 12 16 20 33 32 28 28 27 26 29 23 46 38 39 39 41 38 35 31 30 29 26 25 24 24 24 21 20 19
5 4 2 4 4 5 4 3 5 6 8 7 7 8 4 5 6 6 5 8 12 12 14 16 20 24 20 20 19 22 23 41 40 41 42 39 38 33 32 31 31 26 24 24 24 23 21 20 19
4 4 8 6 4 7 14 8 5 4 5 10 16 15 9 6 9 9 11 12 17 16 20 18 23 24 21 16 8 6 45 46 45 43 43 41 34 35 33 33 31 27 25 23 23 22 20 18 18
6 6 5 7 15 14 6 4 6 6 6 18 10 4 11 8 9 10 11 13 15 14 12 11 12 18 20 20 14 29 30 34 41 41 38 33 39 36 35 34 32 29 25 23 21 18 15 14 13
2 10 7 10 5 5 3 4 6 14 11 4 5 5 9 12 13 10 11 12 13 13 10 8 7 16 18 18 23 33 35 43 42 41 39 44 40 37 34 32 31 28 25 21 18 17 12 11 13
4 5 5 9 20 19 12 14 8 17 23 21 7 6 8 10 11 10 10 10 13 13 11 8 11 17 16 21 25 28 37 41 40 44 43 42 39 35 33 31 30 26 24 20 19 15 14 14 14
6 8 12 14 23 12 7 4 1 13 13 16 10 9 9 9 12 10 9 9 11 11 13 9 13 17 16 20 23 37 40 39 41 39 39 36 35 33 32 29 25 25 22 21 17 14 15 14 12
4 5 6 5 7 5 9 7 9 22 7 13 11 10 11 11 12 10 9 10 12 13 15 12 17 17 17 21 30 41 38 42 44 39 39 39 36 30 26 26 27 23 22 21 16 15 14 12 11
2 2 3 3 2 3 9 10 5 14 13 15 12 12 13 13 13 12 10 7 8 12 15 12 15 20 23 25 33 38 38 35 40 37 37 35 29 24 32 29 23 21 19 16 13 12 13 12 10
3 4 5 8 4 3 4 9 3 2 12 15 15 16 16 15 15 14 9 5 9 10 9 10 15 23 22 27 34 36 36 35 39 42 36 32 32 34 27 23 21 19 17 15 12 13 9 8 8
6 4 5 5 3 2 4 13 16 11 13 19 17 17 17 18 17 15 10 5 9 8 9 9 14 22 23 32 34 35 34 35 32 43 36 36 34 29 24 19 20 18 15 15 12 11 10 8 8
5 4 3 5 5 1 9 7 16 6 10 16 24 20 20 20 14 15 11 8 11 11 10 12 13 17 26 33 33 31 33 36 38 40 39 37 32 30 24 21 18 17 15 13 12 12 11 10 11
4 5 6 9 9 7 8 11 14 5 7 18 25 24 24 20 19 19 14 11 10 14 14 14 13 17 26 35 36 32 30 29 34 34 35 34 32 26 24 23 21 18 15 15 15 15 13 12 13
6 12 4 8 6 5 4 7 8 5 5 10 19 23 22 24 24 22 19 15 13 14 17 18 18 20 22 31 35 26 28 31 32 34 38 35 31 34 35 26 22 18 16 16 15 15 17 17 16
9 9 8 6 2 4 4 5 6 7 8 6 15 21 25 23 25 22 21 18 15 14 14 20 23 25 25 28 33 35 40 36 37 34 35 33 33 31 31 29 24 19 18 20 19 17 21 20 21
9 8 10 6 4 1 3 2 7 2 8 9 8 23 26 26 26 27 25 19 15 16 15 19 21 24 27 32 35 35 38 40 37 38 39 38 33 28 26 25 26 25 22 20 20 21 23 23 25
4 2 3 1 3 5 8 7 5 4 8 7 5 17 24 26 27 26 24 21 20 18 20 21 24 27 29 31 35 38 37 41 45 45 44 46 40 36 35 35 30 26 23 27 25 24 26 27 29
4 6 2 2 2 6 5 3 9 8 11 8 10 20 20 25 28 29 29 28 26 25 25 25 27 31 32 32 34 38 40 43 43 48 46 45 45 44 42 39 38 35 29 28 29 29 31 32 33
8 8 5 6 3 3 3 5 5 8 11 18 21 26 21 21 26 32 31 30 29 28 29 30 32 32 34 34 35 37 37 39 41 47 46 46 43 41 44 43 40 37 33 33 34 35 36 35 36
5 5 7 0 2 0 4 6 8 8 8 7 12 14 17 19 23 30 32 31 31 32 33 34 33 34 35 37 38 39 40 40 42 41 42 46 47 45 45 44 43 39 35 38 36 34 34 36 37
7 7 3 1 4 5 3 3 5 7 9 9 7 12 13 15 19 23 31 33 32 33 32 33 34 33 34 36 40 41 42 42 42 42 42 40 37 38 39 40 40 38 38 38 38 33 29 35 41
3 5 2 3 4 5 3 5 7 9 4 6 7 11 15 16 19 21 29 33 32 33 34 36 35 34 36 36 37 40 41 41 40 40 39 39 38 37 35 35 36 36 37 40 40 34 36 33 31
2 6 9 6 5 4 3 9 5 8 7 7 13 14 12 16 19 23 25 28 31 33 34 35 37 39 36 37 37 37 37 39 37 40 38 37 39 37 34 35 38 41 40 42 34 38 35 32 29
Wind_Direction
139 143 123 106 52 63 301 270 246 261 280 286 287 220 170 305 235 212 141 191 197 184 183 194 193 193 205 196 188 180 168 175 172 173 172 173 175 174 170 164 160 157 154 150 141 132 127 125 126
141 133 92 91 81 48 279 250 235 229 242 272 181 276 94 280 207 140 152 180 172 171 181 187 191 198 190 191 186 184 178 170 174 175 180 178 179 179 172 166 162 158 152 146 132 128 125 123 117
146 147 101 92 104 170 228 224 248 239 282 223 250 245 187 233 209 161 169 164 169 179 180 179 179 183 182 180 182 180 178 173 179 182 185 180 179 176 168 164 161 156 150 140 139 132 128 124 117
137 147 67 84 221 251 212 248 248 297 247 197 239 266 253 220 179 226 195 194 179 188 188 186 179 179 171 165 168 182 183 183 176 179 182 176 174 170 166 161 158 156 153 141 137 135 128 120 111
163 83 57 57 260 259 248 268 311 162 197 175 184 269 250 210 226 225 220 226 237 201 198 196 202 195 192 190 184 199 190 189 177 176 175 188 170 167 163 157 160 158 147 140 135 129 122 113 108
92 83 65 259 249 260 282 285 232 127 312 308 275 203 242 204 237 250 238 225 215 212 205 214 208 200 190 202 192 259 191 188 186 181 183 173 169 167 164 161 164 155 149 143 134 127 120 114 111
123 94 194 231 255 293 267 108 318 212 228 258 215 219 213 205 242 243 252 235 218 219 214 214 204 206 218 202 221 298 214 192 174 169 178 169 169 170 171 169 161 156 149 141 137 131 125 118 112
153 92 159 249 248 272 276 203 249 227 263 243 207 229 214 193 217 225 229 232 221 219 214 215 228 223 216 216 240 255 242 188 184 166 179 170 169 172 171 163 162 160 149 142 139 135 130 120 113
153 70 237 247 206 261 219 251 240 233 250 239 227 244 236 229 190 172 190 187 194 202 206 209 216 201 213 227 256 268 214 187 172 171 173 170 165 164 166 162 163 161 149 143 140 140 131 124 115
121 138 222 209 205 268 290 225 227 201 222 255 251 242 240 202 163 173 171 185 185 177 177 191 198 213 242 231 220 162 175 168 163 169 171 164 164 168 162 164 162 163 155 147 139 137 132 132 124
172 206 217 255 268 271 274 254 210 189 250 237 232 257 209 176 184 190 191 201 204 212 218 236 234 226 225 206 186 154 179 174 160 162 167 166 166 164 165 161 164 166 163 153 143 137 132 129 123
185 240 232 283 281 297 246 242 230 207 234 245 265 260 200 183 193 201 198 202 219 223 220 228 222 208 208 189 164 161 148 158 164 163 175 168 164 164 162 160 160 164 165 160 158 147 137 146 138
197 260 240 266 299 296 260 238 233 248 242 251 278 225 210 193 199 207 213 212 209 215 206 218 207 194 188 181 180 178 168 163 161 167 168 165 163 160 157 158 158 156 163 164 160 143 160 162 145
213 252 286 295 290 272 200 271 128 275 249 229 222 217 205 201 198 213 220 225 218 230 217 234 210 201 194 190 186 171 167 163 164 169 163 160 163 159 157 156 157 161 162 163 148 156 159 156 148
245 287 308 257 271 237 182 281 232 256 243 200 204 213 208 213 218 231 246 243 210 212 226 234 212 206 204 190 176 169 175 167 167 166 167 171 163 157 162 169 169 161 159 156 153 155 152 158 162
275 59 2 262 125 337 153 274 273 284 217 198 213 223 214 221 234 233 247 234 212 215 210 230 239 202 198 183 173 175 174 175 173 172 169 164 161 170 181 174 167 168 165 156 155 155 158 166 175
350 238 224 317 219 107 185 274 257 238 224 218 221 224 228 224 224 231 236 239 198 206 205 223 216 206 190 179 175 180 184 181 179 180 168 175 174 183 177 180 180 179 175 179 173 166 169 172 186
193 225 249 242 232 356 243 254 279 252 221 238 232 225 229 230 218 219 226 221 182 192 185 204 216 209 191 184 184 187 191 191 195 174 177 179 185 179 179 190 198 196 186 198 184 183 183 194 212
153 178 231 257 238 356 274 273 279 246 224 237 237 225 229 230 218 214 218 208 175 186 192 194 212 200 195 186 182 186 196 196 194 174 177 186 181 185 184 197 206 206 205 211 209 206 208 216 228
177 223 246 295 289 175 288 289 286 215 238 229 233 229 231 222 215 210 215 214 196 184 186 185 197 196 194 187 188 194 182 176 175 179 182 182 189 188 200 199 210 218 221 222 225 231 235 234 243
206 219 195 226 353 267 268 295 290 285 264 266 248 246 236 228 215 207 208 208 210 193 183 185 184 196 192 196 195 186 189 181 179 182 186 188 191 202 206 210 216 223 229 237 246 251 251 254 260
230 184 218 239 97 246 124 281 293 282 292 235 250 238 235 231 226 220 209 208 212 206 194 186 186 191 200 195 198 201 185 182 187 188 188 192 200 201 203 212 223 233 240 252 256 261 262 260 260
237 164 202 217 192 278 256 263 257 316 289 271 244 236 236 230 230 224 214 211 211 206 199 190 189 188 195 191 193 190 188 193 193 197 198 204 209 207 212 218 231 241 246 252 258 265 266 265 266
121 151 217 110 144 246 213 190 267 229 224 269 261 252 241 227 227 231 223 212 208 206 202 196 195 196 196 197 197 199 198 199 200 201 202 211 218 219 225 234 237 241 250 257 264 268 271 270 268
136 103 278 334 211 232 195 173 247 251 247 242 262 273 262 243 226 226 220 212 210 207 207 203 201 201 201 203 203 202 206 210 214 210 212 215 222 231 234 240 238 245 256 265 268 273 272 273 272
190 161 167 207 213 260 130 225 246 231 257 275 271 267 276 254 236 227 225 219 216 212 212 210 207 206 205 205 207 211 215 216 218 219 224 226 232 237 232 236 239 247 262 271 272 274 273 271 272
192 168 196 52 109 38 232 291 309 285 294 310 285 269 264 247 232 229 226 225 222 220 218 215 214 212 212 211 212 214 216 218 219 223 229 235 239 240 236 237 240 250 262 266 270 275 267 273 262
173 163 121 347 207 232 248 256 223 304 284 308 304 279 258 238 230 231 232 230 228 228 225 224 222 220 218 218 219 220 221 222 226 231 234 234 235 234 236 239 248 258 261 264 268 272 266 253 265
156 228 189 170 155 212 249 251 216 226 225 276 293 293 264 238 234 236 237 240 235 234 232 229 227 225 225 224 225 225 226 227 228 230 233 234 235 238 243 249 255 261 267 263 264 270 267 271 263
231 204 200 221 246 228 209 244 207 220 205 222 284 290 297 260 248 250 246 245 245 242 239 234 230 228 232 230 227 227 228 227 231 232 232 237 240 241 246 258 266 266 269 249 244 261 265 268 258